Date String (YYYY-MM-DD hh:mm:ss) UTC,Instrument flags,Ambient pressure (hPa),Sample flow (lpm),Bypass flow (lpm),Sample temperature (°C),Ambient temperature (°C),ASC tube jacket temperature (°C),LED temperature (°C),Box temperature (°C),Sample RH (%),Span deviation,Mass concentration (μg/m³),Mass concentration (μg/m³),Mass concentration (μg/m³)
DateTimeUTC,F1_M11,P_M11,Q1_M11,Q2_M11,T1_M11,T2_M11,T3_M11,T4_M11,T5_M11,U1_M11,ZSPAN_M11,X0_M11,X2_M11,X1_M11
2022-12-08 17:00:00,,0824.5,5.01,0.00,21.7,20.2,00.0,30.7,23.3,08.1,0000.0,0002.40,0001.23,0000.83
2022-12-08 17:01:00,,0824.5,5.00,0.00,21.7,20.2,00.0,30.7,23.3,08.2,0000.0,0002.33,0001.22,0000.83
2022-12-08 17:02:00,,0824.6,5.01,0.00,21.7,20.2,00.0,30.6,23.3,08.1,0000.0,0002.41,0001.27,0000.85
2022-12-08 17:03:00,,0824.5,5.00,0.00,21.6,20.2,00.0,30.6,23.3,08.1,0000.0,0002.56,0001.31,0000.86
2022-12-08 17:04:00,,0824.5,4.98,0.00,21.6,20.2,00.0,30.6,23.3,07.8,0000.0,0002.42,0001.25,0000.86
2022-12-08 17:05:00,,0824.8,4.98,0.00,21.6,20.2,00.0,30.6,23.3,08.0,0000.0,0002.55,0001.22,0000.86
2022-12-08 17:06:00,,0824.6,5.00,0.00,21.6,20.2,00.0,30.6,23.3,08.2,0000.0,0002.51,0001.20,0000.85
2022-12-08 17:07:00,,0824.5,5.00,0.00,21.6,20.2,00.0,30.6,23.3,08.2,0000.0,0003.11,0001.20,0000.86
2022-12-08 17:08:00,,0824.6,5.01,0.00,21.6,20.1,00.0,30.6,23.2,08.0,0000.0,0003.19,0001.14,0000.86
2022-12-08 17:09:00,,0824.5,5.01,0.00,21.6,20.1,00.0,30.6,23.2,08.0,0000.0,0003.24,0001.13,0000.86
2022-12-08 17:10:00,,0824.4,5.01,0.00,21.6,20.1,00.0,30.6,23.2,08.1,0000.0,0003.46,0001.14,0000.86
2022-12-08 17:11:00,,0824.6,4.98,0.00,21.5,20.1,00.0,30.5,23.2,08.1,0000.0,0004.52,0001.14,0000.86
2022-12-08 17:12:00,,0824.7,5.00,0.00,21.5,20.1,00.0,30.5,23.2,08.2,0000.0,0004.83,0001.16,0000.86
2022-12-08 17:13:00,,0824.7,5.00,0.00,21.5,20.1,00.0,30.5,23.2,08.2,0000.0,0005.06,0001.22,0000.87
2022-12-08 17:14:00,,0824.7,5.01,0.00,21.5,20.1,00.0,30.5,23.2,08.2,0000.0,0004.95,0001.19,0000.87
2022-12-08 17:15:00,,0824.8,5.00,0.00,21.5,20.1,00.0,30.5,23.2,08.4,0000.0,0004.97,0001.22,0000.87
2022-12-08 17:16:00,,0824.9,5.01,0.00,21.5,20.1,00.0,30.5,23.2,08.5,0000.0,0004.85,0001.22,0000.88
2022-12-08 17:17:00,,0824.7,5.01,0.00,21.5,20.2,00.0,30.5,23.2,08.5,0000.0,0004.69,0001.25,0000.89
2022-12-08 17:18:00,,0824.7,4.99,0.00,21.5,20.2,00.0,30.5,23.2,08.1,0000.0,0004.21,0001.27,0000.89
2022-12-08 17:19:00,,0824.6,4.99,0.00,21.5,20.2,00.0,30.5,23.2,08.3,0000.0,0003.70,0001.27,0000.88
2022-12-08 17:20:00,,0824.7,4.99,0.00,21.5,20.2,00.0,30.5,23.2,08.3,0000.0,0003.60,0001.26,0000.88
2022-12-08 17:21:00,,0824.5,5.00,0.00,21.5,20.2,00.0,30.5,23.2,08.2,0000.0,0003.42,0001.28,0000.89
2022-12-08 17:22:00,,0824.5,5.00,0.00,21.5,20.1,00.0,30.5,23.2,08.1,0000.0,0002.70,0001.30,0000.89
2022-12-08 17:23:00,,0824.6,5.01,0.00,21.5,20.1,00.0,30.5,23.2,08.1,0000.0,0002.52,0001.32,0000.89
2022-12-08 17:24:00,,0824.8,5.00,0.00,21.5,20.1,00.0,30.5,23.1,08.2,0000.0,0002.23,0001.23,0000.89
2022-12-08 17:25:00,,0824.9,5.01,0.00,21.5,20.1,00.0,30.5,23.2,08.4,0000.0,0002.70,0001.21,0000.88
2022-12-08 17:26:00,,0824.9,5.00,0.00,21.5,20.1,00.0,30.5,23.2,08.4,0000.0,0003.71,0001.23,0000.89
2022-12-08 17:27:00,,0824.9,4.99,0.00,21.5,20.1,00.0,30.5,23.2,08.5,0000.0,0004.02,0001.26,0000.90
2022-12-08 17:28:00,,0825.0,4.99,0.00,21.5,20.2,00.0,30.5,23.2,08.5,0000.0,0003.98,0001.26,0000.90
2022-12-08 17:29:00,,0824.9,4.99,0.00,21.5,20.2,00.0,30.5,23.3,08.5,0000.0,0004.06,0001.30,0000.91
2022-12-08 17:30:00,,0824.9,4.99,0.00,21.5,20.2,00.0,30.5,23.3,08.4,0000.0,0004.15,0001.31,0000.91
2022-12-08 17:31:00,,0825.0,5.00,0.00,21.5,20.3,00.0,30.4,23.3,08.4,0000.0,0004.22,0001.33,0000.90
2022-12-08 17:32:00,,0825.0,5.03,0.00,21.5,20.3,00.0,30.4,23.3,08.6,0000.0,0004.39,0001.33,0000.90
2022-12-08 17:33:00,,0825.1,5.00,0.00,21.5,20.3,00.0,30.4,23.3,08.4,0000.0,0004.21,0001.30,0000.89
2022-12-08 17:34:00,,0825.1,4.98,0.00,21.5,20.3,00.0,30.4,23.3,08.6,0000.0,0003.95,0001.27,0000.90
2022-12-08 17:35:00,,0825.1,4.99,0.00,21.5,20.3,00.0,30.4,23.3,08.9,0000.0,0003.90,0001.25,0000.90
2022-12-08 17:36:00,,0824.9,5.00,0.00,21.5,20.3,00.0,30.4,23.3,09.0,0000.0,0003.28,0001.26,0000.91
2022-12-08 17:37:00,,0824.9,5.00,0.00,21.5,20.3,00.0,30.4,23.3,08.9,0000.0,0002.44,0001.22,0000.90
2022-12-08 17:38:00,,0825.0,5.00,0.00,21.5,20.2,00.0,30.4,23.2,08.9,0000.0,0002.07,0001.22,0000.91
2022-12-08 17:39:00,,0825.0,5.00,0.00,21.5,20.3,00.0,30.4,23.3,08.9,0000.0,0002.06,0001.21,0000.91
2022-12-08 17:40:00,,0824.9,5.01,0.00,21.5,20.3,00.0,30.5,23.3,08.8,0000.0,0001.95,0001.17,0000.92
2022-12-08 17:41:00,,0824.9,5.01,0.00,21.5,20.3,00.0,30.5,23.3,08.5,0000.0,0001.86,0001.15,0000.93
2022-12-08 17:42:00,,0825.0,4.99,0.00,21.5,20.3,00.0,30.5,23.3,08.5,0000.0,0001.81,0001.15,0000.94
2022-12-08 17:43:00,,0825.1,4.98,0.00,21.5,20.3,00.0,30.5,23.3,08.5,0000.0,0001.64,0001.15,0000.96
2022-12-08 17:44:00,,0825.0,4.99,0.00,21.6,20.4,00.0,30.5,23.4,08.5,0000.0,0001.57,0001.14,0000.97
2022-12-08 17:45:00,,0825.1,4.99,0.00,21.6,20.4,00.0,30.5,23.4,08.6,0000.0,0001.59,0001.15,0000.97
2022-12-08 17:46:00,,0825.0,5.01,0.00,21.6,20.4,00.0,30.5,23.4,08.7,0000.0,0001.60,0001.16,0000.98
2022-12-08 17:47:00,,0824.9,5.02,0.00,21.6,20.4,00.0,30.5,23.4,08.4,0000.0,0001.62,0001.16,0000.98
2022-12-08 17:48:00,,0824.9,5.01,0.00,21.6,20.5,00.0,30.5,23.4,08.2,0000.0,0001.64,0001.17,0000.98
2022-12-08 17:49:00,,0825.0,4.99,0.00,21.6,20.5,00.0,30.5,23.4,08.2,0000.0,0001.62,0001.15,0000.97
2022-12-08 17:50:00,,0825.0,4.98,0.00,21.6,20.5,00.0,30.5,23.5,08.3,0000.0,0001.63,0001.14,0000.96
2022-12-08 17:51:00,,0825.0,5.01,0.00,21.7,20.6,00.0,30.5,23.5,08.4,0000.0,0001.70,0001.15,0000.94
2022-12-08 17:52:00,,0825.0,5.00,0.00,21.7,20.5,00.0,30.5,23.5,08.3,0000.0,0001.71,0001.17,0000.95
2022-12-08 17:53:00,,0825.0,5.01,0.00,21.7,20.6,00.0,30.5,23.5,08.4,0000.0,0002.46,0001.17,0000.93
2022-12-08 17:54:00,,0825.0,5.01,0.00,21.7,20.5,00.0,30.5,23.5,08.3,0000.0,0003.01,0001.17,0000.93
2022-12-08 17:55:00,,0824.8,5.01,0.00,21.7,20.6,00.0,30.6,23.5,08.2,0000.0,0003.06,0001.18,0000.92
2022-12-08 17:56:00,,0824.7,4.99,0.00,21.7,20.6,00.0,30.6,23.5,08.3,0000.0,0003.04,0001.16,0000.90
2022-12-08 17:57:00,,0824.9,4.99,0.00,21.7,20.6,00.0,30.6,23.5,08.2,0000.0,0003.07,0001.18,0000.88
2022-12-08 17:58:00,,0824.9,4.99,0.00,21.7,20.6,00.0,30.6,23.5,08.2,0000.0,0003.41,0001.20,0000.87
2022-12-08 17:59:00,,0824.9,5.00,0.00,21.7,20.6,00.0,30.6,23.5,08.2,0000.0,0003.49,0001.21,0000.88
